Flag for United Kingdom Weather past 2 weeks in St Helens, England, United Kingdom

Now
61 °F

Passing clouds.


Feels Like: 61 °F
Forecast: 49 / 63 °F
Wind: 12 mph from South

Location: Liverpool Airport

Current Time: Sep 30, 2014 at 11:55:12 PM

Latest Report: Sep 30, 2014 at 11:20 PM


Visibility: N/A

Pressure: 30.09 "Hg

Humidity: 88%

Dew point: 57 °F

Location of St HelensLocation

Historic Weather in St Helens — Graph

°F

St Helens temperature yesterday

Maximum temperature yesterday: 64 °F (at 2:20 PM)
Minimum temperature yesterday: 54 °F (at 1:50 AM)
Average temperature yesterday: 58 °F

Past Weeks' High & Low Weather Summary

 TemperatureHumidityPressure
High73 °F (Sep 18, 3:20 PM)100% (Sep 16, 2:50 AM)30.33 "Hg (Sep 16, 2:50 AM)
Low46 °F (Sep 22, 5:20 AM)50% (Sep 16, 2:20 PM)29.83 "Hg (Sep 18, 2:20 PM)
Average59 °F82%30.08 "Hg
* Reported Sep 15 10:20 PM — Sep 30 10:20 PM, St Helens, Weather by CustomWeather, © 2014

Note: Actual official high and low records may vary slightly from our data, if they occured in-between our weather recording intervals... More about our weather records

Advertising

St Helens weather history for previous 24 hours

 ConditionsComfort  
Time TempWeatherWind HumidityBarometerVisibility
10:20 PM
Sep 30
61 °FPassing clouds.7 mph88%30.09 "HgN/A
9:50 PM61 °FPassing clouds.7 mph88%30.09 "HgN/A
9:20 PM63 °FPassing clouds.7 mph83%30.09 "HgN/A
8:50 PM63 °FPassing clouds.7 mph83%30.09 "HgN/A
8:20 PM63 °FSprinkles. Passing clouds.7 mph83%30.09 "HgN/A
7:50 PM63 °FSprinkles. Passing clouds.8 mph77%30.12 "HgN/A
7:20 PM64 °FSprinkles. Passing clouds.9 mph73%30.09 "HgN/A
6:50 PM66 °FPassing clouds.10 mph68%30.09 "HgN/A
6:20 PM66 °FPassing clouds.10 mph68%30.09 "HgN/A
5:50 PM66 °FScattered clouds.7 mph68%30.09 "HgN/A
5:20 PM66 °FScattered clouds.12 mph68%30.09 "HgN/A
4:50 PM68 °FPassing clouds.8 mph64%30.12 "HgN/A
4:20 PM68 °FPassing clouds.7 mph64%30.12 "HgN/A
3:50 PM66 °FPassing clouds.8 mph68%30.12 "HgN/A
3:20 PM68 °FPassing clouds.12 mph69%30.12 "HgN/A
2:50 PM68 °FPassing clouds.9 mph64%30.15 "HgN/A
2:20 PM68 °FPassing clouds.7 mph64%30.15 "HgN/A
1:50 PM66 °FPassing clouds.9 mph64%30.15 "HgN/A
1:20 PM68 °FPassing clouds.10 mph64%30.15 "HgN/A
12:50 PM66 °FPassing clouds.12 mph64%30.15 "HgN/A
12:20 PM66 °FScattered clouds.13 mph64%30.15 "HgN/A
11:20 AM64 °FPassing clouds.6 mph78%30.15 "HgN/A
10:50 AM64 °FPassing clouds.6 mph73%30.15 "HgN/A
10:20 AM63 °FSunny.6 mph83%30.15 "Hg10 mi
9:50 AM61 °FPassing clouds.6 mph88%30.15 "HgN/A
9:20 AM59 °FPassing clouds.5 mph88%30.15 "HgN/A
8:50 AM57 °FScattered clouds.3 mph94%30.12 "HgN/A
8:20 AM55 °FScattered clouds.3 mph100%30.12 "HgN/A
7:50 AM55 °FPassing clouds.5 mph94%30.12 "HgN/A
7:20 AM55 °FPassing clouds.5 mph94%30.12 "HgN/A
6:50 AM55 °FPassing clouds.3 mph94%30.12 "HgN/A
6:20 AM57 °FPassing clouds.3 mph88%30.12 "HgN/A
5:50 AM55 °FPassing clouds.5 mph94%30.12 "HgN/A
5:20 AM55 °FClear.6 mph94%30.12 "Hg10 mi
4:50 AM55 °FPassing clouds.5 mph94%30.12 "HgN/A
4:20 AM55 °FPassing clouds.6 mph94%30.09 "HgN/A
3:50 AM55 °FPassing clouds.3 mph100%30.09 "HgN/A
3:20 AM55 °FPassing clouds.7 mph94%30.09 "HgN/A
2:50 AM55 °FClear.6 mph94%30.09 "Hg10 mi
2:20 AM55 °FClear.1 mph94%30.09 "Hg10 mi
1:50 AM55 °FPassing clouds.2 mph94%30.09 "HgN/A
1:20 AM55 °FPassing clouds.2 mph94%30.09 "HgN/A
12:50 AM55 °FPassing clouds.3 mph94%30.09 "HgN/A
12:20 AM55 °FPassing clouds.3 mph94%30.09 "HgN/A
11:50 PM
Sep 29
55 °FPassing clouds.3 mph94%30.09 "HgN/A
11:20 PM57 °FPassing clouds.5 mph88%30.09 "HgN/A
Weather by CustomWeather, © 2014

See weather overviewHow to use our weather pages